Terminal Aerodrome Forecast
Issued by NWS

Home | Current Version | Previous Version | Text Only | Print | Product List | Glossary On
Versions: 1 2 3 4 5 6 7 8 9 10 11 12
000
FTUS46 KHNX 140500
TAFVIS
TAF
KVIS 140535Z 1406/1506 32003KT P6SM FEW150
     FM141000 VRB04KT P6SM SCT120 BKN200
     FM141800 30007KT P6SM BKN120=

USA.gov is the U.S. government's official web portal to all federal, state and local government web resources and services.